Theta_e
329 327 329 336 332 316 319 318 318 319 319 321 319 318 317 317 317 313 322 322 322 321 320 319 321 323 324 324 322 320 319 317 315 312 307 312 315 316 317 318 320 323 317 316 318 316 316 330 337
329 327 334 334 329 317 315 316 318 316 319 319 319 319 319 319 321 321 321 320 320 319 316 314 317 317 317 318 318 317 317 317 313 308 308 312 313 314 316 316 317 321 326 325 317 320 317 324 334
329 333 335 330 322 320 314 315 315 317 319 319 318 319 320 321 321 321 321 320 317 315 314 314 314 315 315 316 318 319 317 313 311 310 309 308 316 315 315 315 317 316 325 328 326 327 326 318 328
331 333 332 328 319 316 314 314 316 317 318 318 319 320 321 321 321 321 320 316 316 315 315 315 316 319 319 319 317 314 313 312 312 313 314 312 314 317 316 313 314 316 322 328 327 326 327 319 320
331 331 326 325 319 315 314 316 317 316 317 317 319 320 320 320 318 317 316 316 316 316 317 318 319 316 315 314 313 315 317 315 319 320 321 316 313 315 312 310 310 315 324 328 329 326 325 323 315
329 328 326 326 323 316 317 318 318 317 317 319 320 319 319 318 317 316 316 316 316 316 315 313 313 313 314 317 319 319 318 317 319 320 319 320 320 320 321 316 311 312 324 325 327 326 324 321 315
327 325 329 327 320 317 317 318 316 317 316 317 320 318 318 318 317 316 316 316 315 314 314 315 317 317 319 321 320 319 318 318 318 319 318 318 316 319 320 318 315 314 322 322 325 325 324 320 317
330 324 322 317 316 317 317 318 318 319 318 318 320 317 316 316 316 316 316 316 315 315 317 318 318 320 322 320 319 320 320 320 319 318 319 319 319 319 319 320 316 317 321 322 323 325 323 321 318
327 323 322 319 316 317 317 315 318 319 319 319 318 318 317 316 316 315 315 314 315 315 318 317 321 321 319 321 322 321 321 321 319 320 319 319 320 319 319 319 316 318 319 321 322 323 321 322 320
322 318 319 316 316 315 316 316 318 319 318 317 316 316 315 315 315 314 314 314 313 316 320 320 320 320 321 322 321 320 321 320 318 318 317 316 317 319 319 316 316 319 320 322 323 321 321 323 321
324 324 318 319 318 318 316 316 319 317 318 318 315 315 315 315 315 314 314 314 317 319 318 319 321 321 321 320 320 319 319 318 318 317 317 318 316 316 317 317 319 320 322 322 323 322 322 322 322
323 323 322 320 319 318 316 318 319 319 319 319 318 316 315 315 315 315 313 314 318 318 315 320 321 322 320 319 319 319 319 319 319 320 320 319 318 317 318 318 320 322 322 323 321 321 321 323 323
319 319 319 319 319 319 318 318 318 319 320 318 317 315 315 315 315 314 315 315 319 314 321 320 321 322 320 320 319 319 319 320 319 320 319 320 319 318 319 320 321 321 321 321 321 322 323 324 320
321 319 319 319 319 318 317 317 319 318 318 318 317 315 315 315 314 314 316 317 318 313 319 321 322 322 322 320 321 320 320 320 319 319 320 321 320 320 321 322 321 321 321 322 322 323 324 323 322
320 319 318 317 316 317 317 317 315 319 318 317 316 315 315 315 314 314 318 318 318 312 319 322 322 321 320 320 321 321 321 320 318 318 319 320 321 321 321 321 320 323 323 323 323 324 324 326 328
320 317 318 317 316 317 317 316 316 318 318 317 315 315 315 315 314 317 318 319 316 316 323 322 323 322 321 321 321 321 321 320 319 317 318 320 320 322 323 323 322 322 324 324 324 326 326 326 331
318 320 318 318 316 317 316 316 316 319 318 317 315 315 315 315 315 319 318 318 314 319 321 321 322 322 322 321 321 321 322 321 321 321 321 321 323 323 324 323 323 323 325 325 326 328 327 330 331
319 319 318 318 317 316 315 315 316 318 318 317 315 315 315 315 315 318 318 318 314 317 319 318 322 322 322 323 322 321 322 323 323 322 322 323 323 323 324 323 323 322 326 328 328 329 329 330 331
319 320 320 320 318 318 316 316 315 318 317 316 315 315 315 315 315 318 319 317 315 313 317 316 322 323 323 323 323 323 323 322 322 321 321 321 321 323 323 324 324 325 328 329 330 329 330 331 331
318 319 319 318 318 316 317 317 315 316 317 317 315 315 315 315 317 319 319 317 319 316 314 316 319 322 324 324 322 323 322 323 324 322 322 323 324 323 323 325 327 328 329 331 330 330 331 331 331
319 319 319 319 319 317 316 316 318 317 318 319 315 315 315 315 317 318 318 317 319 319 312 317 317 320 320 324 323 323 325 324 325 324 322 323 326 326 325 327 327 327 329 330 330 329 330 330 330
319 318 319 320 318 317 317 317 318 318 317 317 315 315 315 315 317 318 319 318 317 321 317 317 317 320 319 323 325 325 325 324 326 325 323 325 326 326 326 327 325 327 327 328 328 328 330 329 329
320 320 318 319 318 317 319 317 318 318 319 320 314 315 315 316 316 319 319 318 318 322 320 317 320 319 318 324 326 326 326 326 327 326 324 322 324 325 326 324 324 325 326 326 327 325 328 327 328
320 318 318 316 316 317 317 318 317 320 320 321 316 315 315 316 317 318 319 317 320 322 322 317 323 321 318 321 324 324 324 323 323 327 327 328 324 326 327 326 328 326 327 326 326 328 328 326 327
317 315 316 318 318 320 319 320 319 319 319 321 319 316 316 316 317 318 319 318 321 320 322 320 317 320 319 317 320 324 322 321 320 323 327 328 328 328 327 326 328 328 327 328 326 326 327 327 326
315 315 316 319 319 320 322 324 323 320 324 321 321 319 317 316 317 318 319 318 321 321 321 322 320 318 320 318 317 319 321 320 320 323 324 328 327 329 328 328 328 328 328 328 328 329 329 329 328
317 318 316 318 319 321 322 324 326 324 323 321 318 316 317 316 317 318 319 318 320 321 321 322 321 318 320 319 318 318 318 319 319 321 322 325 325 328 328 328 328 328 328 329 329 329 329 330 329
316 316 318 315 321 321 321 326 327 327 325 323 316 315 316 317 317 318 319 318 320 321 321 322 321 314 317 320 318 317 316 314 314 318 320 321 325 326 325 321 325 327 328 328 328 329 328 326 325
320 322 322 317 318 320 320 324 324 327 326 324 318 316 317 317 317 317 319 318 320 321 320 321 321 313 310 309 314 316 315 316 312 317 318 319 319 320 320 321 322 325 327 326 326 327 327 322 314
320 321 322 321 324 323 323 326 324 327 327 323 319 317 317 318 317 317 318 319 319 320 320 322 320 318 313 310 309 309 315 316 314 314 318 318 317 323 319 321 320 316 315 319 326 326 326 324 315
Wind_Speed
6 5 3 2 3 5 2 5 0 3 2 3 1 3 4 3 3 4 10 8 6 9 11 12 13 14 15 15 18 21 23 23 23 19 16 15 12 11 10 12 15 15 15 17 17 17 16 16 16
4 2 1 2 4 3 5 3 4 6 6 4 10 14 2 1 2 6 10 6 7 13 17 14 13 15 16 16 19 22 25 27 23 21 18 17 16 15 13 12 15 15 14 16 18 16 16 17 17
3 2 1 3 4 5 5 5 8 6 9 13 5 1 3 4 6 5 7 7 12 14 10 9 12 15 17 19 21 23 26 27 24 21 20 18 18 17 16 14 14 17 15 15 17 17 16 17 18
2 0 2 3 5 6 6 7 8 3 7 10 10 6 4 3 2 1 6 10 12 11 12 12 11 11 15 16 19 23 24 26 27 24 18 17 18 20 20 18 16 16 17 16 19 17 15 17 18
4 0 3 3 4 4 3 8 13 5 3 5 11 6 5 4 2 4 6 7 9 12 12 9 10 13 16 17 20 24 25 23 20 21 18 17 14 15 20 23 21 17 18 18 18 19 18 17 17
2 2 3 3 5 4 2 9 18 7 5 5 5 6 3 3 3 0 3 7 8 7 7 10 11 11 15 21 23 26 24 24 22 23 20 18 18 18 16 19 21 19 17 19 21 21 20 18 17
5 4 4 5 5 1 4 8 9 7 8 3 10 4 5 6 6 4 4 5 5 7 8 10 14 20 22 25 26 26 23 24 24 22 23 24 25 22 20 18 21 20 18 21 22 23 21 20 18
4 4 2 4 5 5 5 9 8 12 4 9 9 5 4 12 8 4 4 6 8 10 12 15 19 20 23 27 28 25 25 24 24 26 26 26 26 26 25 21 22 20 20 21 24 24 23 20 18
6 3 3 5 8 6 9 5 11 5 9 5 4 7 13 12 7 5 8 10 9 11 14 15 17 20 26 27 22 21 19 20 23 24 26 28 30 33 33 28 22 19 20 21 24 24 22 20 19
4 3 6 6 4 6 13 10 13 7 11 6 14 15 13 8 6 8 9 9 12 13 16 18 19 23 23 22 20 18 14 10 15 22 20 20 25 27 23 22 20 19 19 21 22 23 21 20 20
4 6 6 5 8 11 11 8 9 20 2 15 22 17 12 6 5 5 7 10 14 15 18 17 18 18 20 19 18 15 8 8 13 11 9 9 9 15 17 19 20 18 19 21 21 23 21 22 21
3 19 13 10 7 11 10 12 6 11 10 19 15 15 11 7 1 5 9 12 15 18 19 17 14 17 17 14 15 8 7 6 8 5 3 1 5 10 13 16 16 14 18 19 21 22 22 23 22
4 4 8 12 13 12 12 7 7 10 15 17 17 16 12 5 1 6 8 14 13 18 15 16 13 14 13 14 14 13 6 7 5 2 4 5 7 11 13 14 14 12 15 18 20 21 22 22 25
6 8 9 11 11 12 8 4 8 12 17 19 19 17 10 4 1 4 9 14 14 18 15 16 14 13 13 10 14 11 7 5 1 3 5 5 7 9 10 10 10 11 13 15 17 20 22 24 28
6 4 5 4 9 6 7 2 8 17 20 21 20 16 11 6 2 4 9 11 14 17 13 14 12 12 13 10 12 9 6 5 5 5 5 7 5 4 6 8 10 10 12 14 17 20 24 26 31
3 4 3 5 5 3 7 9 4 19 26 22 20 18 13 8 2 4 6 8 13 14 12 14 13 14 12 10 9 8 7 5 6 6 5 5 5 6 6 9 9 11 14 15 20 24 27 30 34
5 4 5 5 11 3 3 7 3 24 27 23 24 20 15 11 6 5 4 6 12 11 11 15 14 14 13 10 9 8 7 5 3 3 2 3 2 5 6 9 9 8 12 17 23 28 29 36 36
5 5 5 5 4 6 6 10 4 24 26 23 26 21 16 11 7 6 3 5 10 11 10 14 13 14 11 12 9 8 7 8 8 5 4 5 1 4 8 10 13 9 14 25 29 33 33 38 38
5 4 7 3 4 6 11 8 10 17 13 16 25 22 18 13 10 7 4 3 7 12 7 12 12 14 12 10 10 7 7 10 8 4 6 6 4 2 12 11 15 19 23 27 36 32 40 38 39
5 7 7 7 4 8 7 12 5 9 17 20 27 25 22 17 14 10 6 2 4 10 5 7 10 15 18 13 9 11 11 11 9 9 7 11 14 21 23 19 16 19 25 30 33 36 44 43 45
6 5 5 7 5 2 3 6 3 5 13 14 26 27 23 20 17 14 10 4 1 7 10 7 8 11 15 18 12 13 13 14 11 12 9 12 14 13 14 13 19 17 22 29 33 35 35 40 40
6 8 9 5 3 6 5 5 5 4 10 9 24 28 27 22 17 15 13 6 1 3 9 7 10 10 12 13 13 13 15 16 21 17 17 20 15 18 17 16 16 14 19 22 26 29 32 34 38
11 10 10 5 5 2 0 3 7 3 6 9 18 32 29 24 19 19 15 6 4 2 6 6 8 8 11 11 14 16 20 15 16 16 16 12 13 13 12 15 12 14 19 16 19 26 34 27 24
13 1 6 4 3 2 6 5 5 5 8 5 14 28 32 27 22 18 14 9 7 7 1 5 4 5 9 10 11 13 16 17 17 15 15 17 10 9 13 12 17 17 15 16 20 23 29 16 19
4 5 3 4 3 6 1 3 8 9 11 10 20 30 34 29 25 24 20 14 11 7 7 2 2 3 5 7 9 11 13 13 15 14 14 14 12 16 22 16 15 24 16 15 21 22 22 17 15
9 10 6 7 5 9 3 5 7 6 12 18 28 36 36 32 27 26 22 15 13 9 7 8 2 2 3 4 7 8 9 11 14 18 15 15 18 17 20 18 18 18 18 17 20 18 16 18 14
6 4 8 5 2 2 3 6 9 3 6 12 17 27 36 35 30 28 24 17 15 14 7 10 7 2 5 3 2 2 4 9 13 14 16 15 18 24 22 20 19 20 15 16 15 14 12 14 15
8 5 3 2 3 6 3 3 6 6 4 5 9 21 32 35 30 29 25 18 16 15 10 12 9 4 6 5 4 2 5 8 13 14 16 14 16 16 19 19 18 18 19 20 19 24 25 25 23
2 2 4 4 4 6 1 6 7 8 8 15 16 32 40 39 34 31 27 19 16 14 13 12 11 7 7 8 7 6 6 8 10 15 16 17 15 14 17 17 18 18 18 17 18 20 23 23 22
5 10 8 5 4 2 4 7 4 4 9 13 19 32 39 39 35 32 28 22 20 18 14 11 14 10 6 6 7 9 10 9 9 17 16 16 18 18 19 19 19 21 21 20 19 20 19 18 19
Wind_Direction
120 122 81 109 74 69 253 249 247 210 253 235 184 170 163 98 153 214 157 188 218 254 276 278 267 276 281 285 298 305 307 309 308 304 284 260 253 251 240 243 248 250 247 242 234 232 229 228 221
141 145 198 109 90 91 255 246 235 223 209 168 136 126 85 88 153 160 165 206 270 291 297 292 288 294 299 301 307 308 306 307 306 302 285 261 250 252 248 244 243 248 247 242 236 232 226 226 227
175 172 209 109 118 189 211 193 217 233 190 164 147 63 133 141 156 178 217 297 310 310 310 300 300 302 298 297 298 298 299 301 301 297 290 264 250 251 252 254 248 246 243 240 237 234 227 220 225
147 175 81 94 231 246 198 197 200 204 215 184 156 101 120 165 177 279 314 328 326 324 313 297 287 288 293 291 288 291 293 294 291 289 277 262 248 249 251 250 252 257 241 233 238 229 226 223 217
174 108 47 316 264 257 214 188 180 196 224 216 177 156 141 116 11 349 354 329 303 300 294 280 288 291 284 284 293 297 296 289 279 271 258 253 243 258 254 250 248 252 247 235 226 226 226 223 214
137 115 63 269 262 278 264 177 179 203 225 167 117 106 146 140 83 224 314 307 297 300 309 302 297 293 299 305 304 307 291 280 275 265 261 251 255 255 257 258 251 245 244 229 220 220 221 220 213
145 104 219 245 265 176 230 182 177 176 162 224 148 113 155 172 178 192 273 303 322 331 332 324 315 313 310 308 300 303 290 283 277 268 263 259 258 257 250 273 257 239 243 219 219 213 212 213 211
191 110 198 221 215 221 215 170 193 165 180 129 194 172 188 168 173 206 274 313 331 334 326 323 315 310 306 305 304 295 284 276 266 266 267 261 260 262 261 269 255 233 232 223 214 209 209 209 210
214 75 252 242 167 224 189 153 167 165 145 120 164 154 160 169 181 236 307 314 323 330 319 327 315 307 308 307 308 305 287 271 265 266 268 265 256 256 257 258 242 231 221 218 209 206 206 205 205
139 137 235 209 229 202 183 172 162 133 129 101 123 142 159 173 225 313 334 344 343 337 333 326 316 314 320 316 314 315 306 295 296 293 277 261 250 246 235 231 228 219 216 208 201 199 200 201 200
204 225 200 264 221 198 174 194 163 132 213 176 166 167 174 204 286 342 4 4 359 347 334 329 325 329 329 327 323 313 295 305 304 301 278 260 227 210 215 214 209 205 208 198 195 194 196 196 196
255 266 232 192 205 162 172 189 162 164 206 186 186 183 187 208 202 24 13 8 1 346 342 338 331 339 339 348 347 335 314 324 343 345 326 330 192 189 195 197 196 198 198 190 191 195 195 193 194
216 239 183 163 159 178 170 186 180 203 165 171 176 184 187 185 51 13 23 16 359 352 356 347 335 343 349 359 0 8 2 349 353 40 92 117 146 165 182 189 190 185 191 189 190 196 194 192 188
237 195 178 176 173 160 144 177 167 181 162 172 182 182 183 189 24 34 26 14 0 359 357 354 348 344 350 348 356 359 3 10 38 153 142 139 153 168 172 183 183 181 186 192 192 197 191 186 183
193 111 347 242 187 188 150 197 231 195 176 179 182 181 179 175 118 30 35 9 3 2 4 2 8 7 4 8 7 13 10 43 76 130 136 136 143 177 185 192 186 189 189 188 195 190 181 180 174
165 84 186 256 155 243 156 261 253 188 181 187 183 183 181 170 135 77 51 14 8 15 14 10 14 13 12 13 15 32 31 74 94 118 156 170 198 220 197 194 186 189 189 195 184 174 174 173 171
358 251 227 296 192 143 170 258 262 186 190 191 188 184 179 162 150 119 68 18 16 29 19 17 31 28 26 22 27 31 28 40 72 108 148 222 237 212 193 189 184 171 196 182 176 170 171 169 167
246 274 264 259 216 188 201 249 277 191 198 194 192 186 181 171 161 148 107 26 23 33 20 19 23 19 24 24 32 36 35 49 62 70 71 70 219 206 174 174 172 175 182 160 158 166 167 166 168
222 236 257 246 245 182 225 224 231 197 207 190 191 190 185 176 156 158 146 44 32 29 21 23 35 34 30 24 36 46 53 66 70 71 77 81 41 2 165 163 154 153 168 162 159 167 166 160 165
237 253 273 283 245 178 254 245 216 188 216 203 188 195 189 175 169 171 169 128 39 25 27 24 40 49 46 40 55 58 69 68 70 74 83 67 96 93 117 133 122 158 160 160 165 159 153 143 149
258 231 249 236 338 234 127 302 209 219 209 206 201 203 192 185 177 178 175 173 58 27 26 35 45 57 45 41 61 75 71 70 77 88 86 93 97 103 114 108 135 153 156 148 153 163 157 150 152
267 236 247 249 157 236 141 257 293 230 209 190 188 199 195 189 183 179 176 181 144 39 24 82 78 59 54 50 62 82 75 80 76 88 90 105 100 103 104 124 108 113 147 150 155 156 160 157 152
249 240 233 229 206 143 301 87 265 119 218 227 199 199 197 191 187 182 181 185 135 164 29 112 83 55 68 80 72 76 78 64 74 71 79 116 142 135 120 140 128 111 113 127 153 163 146 139 147
245 261 48 45 87 34 233 151 285 225 211 207 195 199 195 190 188 186 181 179 164 186 145 130 103 66 76 84 84 77 79 79 80 85 91 94 124 182 177 142 140 128 129 130 134 142 148 109 130
115 83 289 334 346 220 264 111 229 250 238 199 187 193 194 189 189 186 185 183 182 190 196 192 156 89 86 82 90 88 80 84 84 89 93 92 98 116 123 119 146 142 126 136 156 152 159 152 141
204 184 172 213 226 260 188 230 255 231 282 239 196 192 186 187 191 190 190 187 185 193 187 213 198 159 130 110 93 86 83 96 97 99 94 98 86 110 123 123 124 126 123 128 146 146 155 138 167
221 177 204 131 354 44 255 298 319 24 38 118 152 169 183 188 192 193 192 191 187 201 203 219 215 219 179 172 151 99 73 119 121 114 107 100 96 105 108 115 122 126 128 135 138 151 128 123 144
166 175 87 0 177 251 275 267 246 271 176 150 158 175 184 188 192 195 191 191 192 206 214 228 220 240 190 203 210 196 133 124 135 132 125 119 114 109 113 114 119 124 128 125 116 123 122 119 117
205 157 56 125 138 189 194 263 221 247 198 200 187 182 189 189 193 195 191 190 190 195 206 229 216 203 191 187 193 191 165 143 137 146 134 133 131 127 135 130 126 133 136 138 135 132 131 126 123
177 187 155 172 226 153 158 262 29 277 214 202 200 187 191 191 193 196 192 190 193 197 205 221 212 205 188 171 180 185 183 174 153 155 145 139 140 134 143 139 135 130 138 138 138 138 142 141 137